Vorticity
7 7 7 7 7 7 6 6 6 6 6 6 6 5 5 5 5 5 4 4 4 4 4 4 3 3 3 3 3 3 3 3 3 2 2 2 2 2 3 3 3 3 3 3 3 3 3 3 3 3 3 4 4 4 4 4 4 4 5 5 5 5 5 5 5 5 5 5 5 5 6 6 7 7 7 6 6 6 6 6 6 6 5 5 5 5 6 6 7 7 6 6 6 6 6 6 6 6 5 5 6 6 6
6 6 6 6 6 6 6 6 6 6 6 6 6 6 6 5 5 5 5 4 4 4 4 4 3 3 3 3 3 3 3 3 3 2 2 2 2 2 2 2 2 2 3 2 2 2 2 2 2 2 2 2 2 3 3 3 3 3 4 4 4 4 4 4 4 4 4 4 5 5 5 5 6 6 7 7 7 6 6 6 6 6 5 5 5 5 5 5 6 7 7 7 6 6 7 7 7 6 6 5 5 6 7
6 6 6 6 6 6 6 6 6 6 6 6 6 6 6 6 6 6 5 5 5 4 4 4 4 4 3 3 3 3 3 3 3 3 2 2 2 2 2 2 2 2 2 2 2 1 1 2 2 1 2 2 2 2 2 2 2 2 2 3 3 3 3 3 4 4 4 4 4 4 4 5 5 5 6 6 7 7 7 6 6 6 6 5 5 5 5 5 5 6 7 7 7 7 7 7 7 7 6 5 5 5 6
6 6 6 6 6 6 6 6 6 6 7 7 7 7 6 6 6 6 6 6 5 5 5 5 4 4 4 4 4 4 3 3 3 3 3 3 2 2 2 2 2 2 2 2 2 1 1 1 1 1 1 1 1 1 2 2 2 2 2 2 2 2 2 3 3 3 3 4 4 4 4 4 4 5 5 5 6 7 7 7 7 6 6 5 5 5 5 5 5 5 6 7 7 7 7 7 7 7 7 6 5 5 5
6 6 6 6 6 6 6 6 6 6 6 6 7 7 7 7 7 6 6 6 6 6 6 5 5 5 5 5 4 4 4 4 4 3 3 3 3 3 3 3 3 2 2 2 2 2 2 2 2 2 2 2 2 2 2 2 2 2 2 2 2 2 2 2 2 2 2 3 3 3 4 4 4 4 5 5 5 6 6 7 7 7 7 6 5 5 4 4 5 5 5 5 6 7 8 7 7 7 7 7 6 5 4
6 6 6 6 6 6 6 6 6 6 6 6 6 6 7 6 6 6 6 6 6 6 6 6 6 6 5 5 5 5 5 5 4 4 4 4 4 4 4 4 3 3 3 3 3 3 2 3 3 3 3 3 3 3 3 3 3 3 3 2 2 2 2 1 1 1 1 1 2 2 3 3 4 4 4 5 5 5 6 6 7 7 7 7 6 5 4 4 4 4 5 4 5 6 7 8 7 7 7 7 7 6 5
6 6 6 6 6 6 6 6 6 6 6 6 6 6 6 6 6 6 6 6 6 6 6 6 6 6 6 6 6 6 5 5 5 5 5 5 4 4 4 4 4 4 4 4 4 3 3 3 3 4 4 4 4 4 4 4 4 4 4 3 3 3 2 2 1 1 0 0 0 1 1 2 2 3 4 4 5 5 5 5 6 6 7 7 7 7 6 4 4 4 4 4 4 4 6 7 8 8 7 7 7 7 6
7 7 7 7 6 6 6 6 6 6 6 6 6 6 6 6 6 6 6 6 6 6 6 6 6 6 6 6 6 6 6 6 6 6 5 5 5 5 5 5 5 4 4 4 4 4 4 4 4 4 4 4 4 4 5 4 4 4 4 4 4 3 3 2 2 1 1 0 -0 -0 -1 -0 0 1 2 3 4 5 5 5 6 6 6 7 7 8 8 6 5 4 4 4 4 4 4 5 7 8 8 8 8 7 7
8 8 8 8 8 7 7 7 7 7 7 7 7 7 7 7 6 6 6 6 6 6 6 6 6 6 6 6 6 6 6 6 6 6 6 6 6 5 5 5 5 5 5 4 4 4 4 4 4 4 4 4 4 5 5 5 5 4 4 4 4 4 4 3 3 3 2 1 1 0 -0 -1 -1 -1 -1 0 1 3 4 5 5 6 6 6 7 7 8 8 7 5 4 3 4 4 4 4 5 7 8 8 8 8 8
9 9 9 9 9 9 8 8 8 8 8 8 8 7 7 7 7 7 7 7 7 7 7 7 7 7 6 6 6 6 6 6 6 6 6 6 6 6 6 5 5 5 5 5 5 4 4 4 4 4 4 4 5 5 5 5 5 5 5 5 5 5 5 5 4 4 4 3 3 2 2 1 0 -1 -2 -2 -2 -1 1 2 4 5 6 6 6 7 8 8 8 7 5 4 3 4 4 4 4 5 7 7 8 8 8
10 10 10 10 9 9 9 9 9 9 9 8 8 8 8 8 8 8 8 8 7 7 7 7 7 7 7 7 7 7 7 7 7 7 7 7 7 6 6 6 6 5 5 5 5 4 4 4 4 4 4 5 5 5 5 5 6 6 6 6 6 6 6 6 6 6 6 5 5 5 4 4 3 2 1 -0 -1 -2 -2 -1 0 2 4 5 6 7 7 8 8 8 7 5 4 4 3 4 4 4 5 6 7 8 8
9 9 9 9 9 9 9 9 9 9 9 9 9 9 8 8 8 8 8 8 8 8 8 7 7 7 7 7 7 7 7 7 7 7 7 7 7 7 6 6 6 5 5 5 4 4 4 4 4 4 4 4 5 5 5 5 5 5 6 6 6 6 6 6 6 6 7 7 7 7 6 6 5 5 4 3 2 0 -1 -2 -2 -1 0 2 4 6 6 7 8 8 8 7 6 4 3 3 4 4 4 5 6 7 8
8 8 9 9 9 9 9 9 9 9 9 9 9 9 8 8 8 8 8 8 8 8 8 7 7 7 7 7 7 7 7 7 7 7 7 7 7 7 7 6 6 6 5 5 5 4 4 4 4 4 4 4 4 4 4 4 4 4 5 5 5 5 5 5 5 6 6 6 6 7 7 7 7 7 6 5 5 4 3 1 0 -1 -2 -1 0 3 5 6 7 7 8 8 7 6 4 4 3 3 4 4 5 6 7
7 8 8 8 8 8 8 8 8 8 8 8 8 8 8 8 8 8 8 8 8 7 7 7 7 7 7 7 7 7 7 7 7 7 7 7 7 7 6 6 6 6 5 5 5 4 4 4 4 4 3 3 3 3 3 3 3 3 3 3 3 4 4 4 4 4 5 5 5 5 6 6 7 7 7 7 6 6 5 4 3 2 1 -1 -1 -1 1 4 6 7 7 8 8 7 6 5 4 3 3 4 4 5 6
6 7 7 7 7 7 7 8 8 8 8 8 8 8 8 8 8 8 8 8 8 8 7 7 7 7 7 7 7 7 7 7 7 7 7 7 7 7 6 6 6 6 5 5 5 5 5 4 4 4 4 3 3 3 3 2 2 2 2 2 2 2 2 2 3 3 4 4 4 4 4 5 5 6 6 7 7 7 7 6 5 5 4 3 1 -0 -1 0 3 5 7 8 8 8 7 6 5 4 3 3 4 4 5
5 6 6 6 6 7 7 7 7 7 8 8 8 8 8 8 8 8 8 8 8 8 8 7 7 7 7 7 7 7 7 7 7 7 7 7 7 7 6 6 6 6 5 5 5 5 5 5 5 5 4 4 4 3 3 3 2 2 2 1 1 1 1 1 2 2 2 3 3 3 3 4 4 4 5 5 6 6 7 7 7 6 6 5 4 3 1 0 1 2 5 7 8 8 8 7 6 5 4 3 3 4 4
5 5 5 5 6 6 6 6 7 7 7 7 7 7 8 8 8 8 8 8 8 8 8 8 8 7 7 7 7 7 7 7 7 7 7 7 7 7 6 6 6 6 6 6 6 6 5 5 5 5 5 5 5 4 4 3 3 3 2 2 1 1 1 0 1 1 2 2 2 3 3 3 3 3 4 4 5 5 6 6 7 7 7 7 6 6 5 3 1 1 2 5 7 8 8 8 7 6 5 4 3 3 3
4 4 4 5 5 5 5 5 6 6 6 6 7 7 7 7 7 7 8 8 8 8 8 8 8 8 8 7 7 7 7 7 7 7 7 7 7 7 7 6 6 6 6 6 6 6 6 6 6 6 6 5 5 5 5 4 4 4 3 2 2 1 1 1 1 1 1 1 2 2 2 2 3 3 3 3 4 5 5 6 7 8 8 8 8 8 8 7 5 3 1 2 5 7 8 8 8 7 6 5 4 3 3
4 4 4 4 4 4 5 5 5 5 5 6 6 6 7 7 7 7 7 7 7 7 7 7 8 8 8 8 8 8 8 8 8 8 7 7 7 7 7 7 6 6 6 6 6 6 6 6 6 6 6 6 6 5 5 5 5 4 4 3 3 2 2 1 1 1 1 1 1 1 2 2 2 3 3 4 5 6 7 9 10 11 12 12 12 12 11 10 8 6 4 3 3 5 8 8 8 8 7 5 4 3 3
3 3 3 4 4 4 4 4 4 5 5 5 5 6 6 6 7 7 7 7 7 7 7 7 8 8 8 8 8 8 8 8 8 8 8 8 7 7 7 7 7 6 6 6 6 6 6 6 6 6 6 6 6 6 5 5 5 4 4 4 3 3 2 2 2 1 1 1 1 1 1 2 3 4 5 7 9 11 12 14 15 16 17 17 17 17 15 14 12 10 8 6 4 4 6 8 9 8 7 6 5 4 3
3 3 3 3 3 3 3 4 4 4 4 5 5 5 5 6 6 6 7 7 7 7 7 7 8 8 8 8 8 8 8 8 8 8 8 8 8 7 7 7 7 6 6 6 6 6 6 6 6 6 6 6 6 6 5 5 5 5 4 4 3 3 3 2 2 2 1 1 1 1 2 3 5 7 10 13 15 17 19 21 22 22 23 23 23 22 21 19 17 15 13 10 8 6 5 7 9 9 8 7 6 5 4
3 3 3 3 3 3 3 3 3 4 4 4 4 5 5 5 6 6 6 7 7 7 7 7 8 8 8 8 8 9 9 9 8 8 8 8 8 7 7 7 6 6 6 6 6 6 6 6 6 6 6 6 6 5 5 5 5 4 4 4 4 3 3 2 2 2 1 1 1 2 4 7 10 13 17 20 23 25 27 27 28 28 28 28 27 26 25 24 21 19 17 15 12 9 6 7 8 10 9 8 7 5 4
3 3 3 3 3 3 3 3 3 3 3 4 4 4 4 5 5 5 6 6 6 7 7 7 8 8 8 8 9 9 9 9 8 8 8 8 7 7 7 6 6 6 6 6 6 6 6 6 6 6 6 5 5 5 5 4 4 4 4 4 3 3 3 2 2 1 1 2 3 6 9 13 17 21 25 27 30 31 32 33 33 32 31 31 30 29 28 27 25 23 20 18 15 12 9 7 8 10 11 9 8 6 5
3 3 3 3 2 2 2 3 3 3 3 3 3 3 4 4 4 5 5 6 6 6 7 7 7 8 8 8 9 9 9 9 8 8 8 8 7 7 7 6 6 6 6 6 6 6 6 6 6 5 5 5 5 4 4 4 4 4 4 4 3 3 2 2 2 2 2 4 7 11 16 21 25 28 31 33 35 36 36 36 36 35 34 33 32 31 30 29 27 25 23 20 18 15 12 9 8 9 12 11 9 7 6
3 3 3 3 3 3 2 2 2 3 3 3 3 3 3 4 4 4 5 5 5 6 6 7 7 7 8 8 8 8 9 8 8 8 8 7 7 7 7 6 6 6 5 5 5 5 5 5 5 5 5 4 4 4 4 4 3 3 3 3 3 2 2 2 2 3 5 9 14 19 24 28 32 34 36 37 38 38 38 38 38 37 36 35 33 32 31 30 29 27 25 23 20 17 15 11 9 8 11 12 11 9 7
4 4 4 3 3 3 3 3 3 2 2 2 2 3 3 3 3 4 4 4 5 5 6 6 7 7 8 8 8 8 9 8 8 8 8 8 7 7 7 6 6 6 5 5 5 5 5 5 5 4 4 4 4 3 3 3 3 3 3 3 2 2 2 3 4 7 10 16 21 26 31 34 36 38 39 39 39 38 38 38 37 37 37 36 35 33 32 31 30 29 28 25 23 20 17 14 11 9 9 12 13 11 8
4 4 4 4 4 3 3 3 3 3 3 2 2 2 3 3 3 3 4 4 4 5 5 6 6 7 7 8 8 8 8 8 8 8 8 8 7 7 7 6 6 6 5 5 5 5 4 4 4 4 3 3 3 3 3 3 2 2 2 2 2 3 4 5 8 12 17 23 28 32 36 38 39 39 39 38 37 37 36 36 35 36 36 36 35 34 33 33 32 31 30 28 25 22 19 16 13 10 8 11 13 13 10
5 5 5 4 4 4 4 3 3 3 3 3 3 3 2 3 3 3 3 4 4 4 5 6 6 7 7 8 8 8 8 8 8 8 8 8 7 7 6 6 6 6 5 5 5 4 4 3 3 3 3 3 3 3 2 2 2 2 2 2 3 4 6 9 13 18 24 29 33 36 38 39 39 38 37 35 34 33 33 33 33 33 34 34 34 34 34 33 33 32 31 30 28 25 22 19 16 12 8 9 12 15 13
6 5 5 5 5 4 4 4 4 3 3 3 3 3 3 3 3 3 4 4 4 4 5 5 6 6 7 7 8 8 8 8 8 8 7 7 7 7 6 6 6 5 5 5 4 4 3 3 2 2 2 2 2 2 2 2 2 2 3 4 5 7 9 14 19 24 29 34 36 38 38 37 36 34 33 31 31 30 30 30 30 30 31 32 33 33 33 33 33 33 32 32 31 29 25 22 18 15 11 9 11 14 16
6 6 5 5 5 5 5 5 4 4 4 3 3 3 4 3 3 3 4 4 4 4 5 5 6 6 7 7 8 8 8 8 8 8 7 7 7 7 6 6 6 5 5 4 4 3 2 2 2 2 2 2 2 2 2 2 2 3 4 5 8 10 14 19 24 29 34 36 38 38 36 34 32 30 28 28 27 27 27 27 28 28 29 30 31 32 33 33 33 32 33 33 33 32 30 25 22 18 15 10 10 13 18
6 6 6 6 5 5 5 5 5 4 4 4 4 4 4 4 4 4 4 4 4 4 5 5 5 6 7 7 8 8 8 8 8 8 7 7 7 6 6 6 5 5 4 4 3 3 2 2 2 2 2 2 2 2 2 3 3 5 6 8 11 15 19 24 29 33 36 37 36 35 33 30 28 26 25 25 25 25 26 26 27 27 28 29 30 31 32 32 32 32 32 32 33 33 33 30 26 22 18 14 11 12 17
6 6 6 6 6 6 5 5 5 5 5 5 4 4 5 4 4 4 4 4 5 5 5 5 6 6 6 7 8 8 8 8 8 8 7 7 7 6 6 5 5 5 4 3 3 2 2 2 2 2 2 2 2 2 3 4 5 7 9 12 15 19 24 28 32 34 36 35 33 31 28 26 24 23 23 23 23 24 25 25 26 27 27 29 30 31 32 32 32 32 31 31 32 33 34 33 30 26 21 18 15 14 16
6 6 6 6 6 6 6 6 5 5 5 5 5 5 5 5 5 5 5 5 5 5 5 5 6 6 6 7 8 8 8 8 8 8 7 7 6 6 6 5 5 4 4 3 3 2 2 2 2 2 2 2 3 3 4 6 7 9 12 15 19 23 28 31 33 34 34 32 30 27 24 23 21 21 21 22 23 23 24 25 26 26 27 28 29 30 31 32 33 32 32 31 31 32 33 34 32 30 25 21 19 18 19
6 6 6 6 6 6 6 6 6 6 6 5 5 5 6 6 6 6 6 6 6 6 6 6 6 6 7 7 7 8 8 8 8 7 7 7 6 6 6 5 5 4 4 3 3 2 2 2 2 2 2 3 4 5 6 8 10 12 15 19 22 27 31 33 33 32 30 28 25 23 21 20 20 20 20 21 22 23 24 25 25 26 26 27 28 29 31 32 33 33 33 32 31 31 31 32 33 32 29 24 21 20 22
6 6 6 5 5 6 6 6 6 6 6 6 6 6 6 6 6 6 6 6 6 6 6 6 6 6 7 7 7 8 8 8 7 7 7 6 6 6 5 5 4 4 3 3 3 2 2 2 2 2 3 4 5 7 8 11 13 15 18 22 26 29 32 33 32 29 27 24 22 20 19 19 19 19 20 21 22 23 24 25 25 26 26 27 27 28 29 30 32 33 34 33 32 31 30 31 32 32 32 27 23 21 23
6 5 5 5 5 6 6 6 6 6 6 6 6 6 6 6 6 7 7 7 7 7 7 7 7 7 7 7 7 8 8 8 7 7 6 6 6 6 5 5 4 4 3 3 3 3 2 2 3 3 4 5 7 9 11 13 16 18 21 25 28 31 32 31 29 26 23 20 19 18 17 18 18 19 20 21 22 23 24 25 25 26 26 26 27 27 28 29 31 32 34 34 33 32 31 31 31 32 32 30 26 23 24
5 5 5 5 5 5 6 6 6 6 6 6 6 6 6 7 7 7 7 7 7 7 7 7 7 7 7 7 7 7 7 7 7 6 6 6 5 5 5 5 4 4 3 3 3 3 3 3 3 4 5 7 9 11 14 16 18 21 24 27 29 31 31 28 25 22 20 18 17 16 17 17 19 20 21 22 23 24 25 25 26 26 26 26 27 27 28 29 30 31 33 34 34 33 32 31 31 31 32 32 29 26 25
5 5 5 5 5 5 6 6 6 6 6 6 6 6 7 7 7 7 7 7 7 7 7 7 7 7 7 7 7 7 7 7 6 6 6 6 5 5 5 4 4 4 3 3 3 3 3 3 4 5 7 8 11 13 16 18 21 23 25 28 30 30 28 25 22 19 17 16 16 16 17 18 19 21 22 23 25 25 26 26 27 27 27 27 27 27 27 28 29 30 31 32 33 34 34 33 32 31 32 32 31 29 29
4 4 4 5 5 5 6 6 6 6 6 6 6 7 7 7 7 7 8 8 8 8 7 7 7 7 7 7 7 7 6 6 6 6 5 5 5 5 5 4 4 4 4 4 3 3 3 4 5 7 8 11 13 16 18 21 23 25 27 29 29 28 25 22 19 17 15 15 15 16 17 19 20 22 23 24 25 26 27 27 27 27 27 27 27 27 27 28 28 29 30 31 32 33 33 33 32 32 31 31 30 30 31
4 4 4 5 5 5 5 5 6 6 6 6 6 7 7 7 7 8 8 8 8 8 8 7 7 7 7 6 6 6 6 6 5 5 5 5 5 5 5 4 4 4 4 4 4 4 4 5 7 8 10 12 15 17 20 23 24 26 28 28 27 25 22 19 17 15 15 15 16 17 18 20 21 23 24 25 26 27 28 28 28 28 28 28 27 27 27 28 28 29 29 30 31 32 32 32 32 32 31 30 29 29 30
4 4 4 5 5 5 5 5 5 6 6 6 7 7 7 7 8 8 8 8 8 8 8 7 7 7 7 6 6 6 6 5 5 5 5 5 5 5 5 4 4 4 4 4 4 4 5 7 8 10 12 14 16 20 23 24 25 26 27 27 25 22 19 17 15 15 15 16 17 18 20 21 22 23 24 26 27 28 29 29 29 28 28 28 28 28 28 28 28 28 29 29 30 30 31 31 32 31 30 30 29 29 29
4 4 4 5 5 5 5 5 5 6 6 6 7 7 7 8 8 8 8 8 8 8 8 8 7 6 6 6 5 5 5 5 5 5 5 5 5 5 5 5 4 4 4 4 5 5 7 8 10 11 13 15 18 22 24 25 26 26 27 25 23 20 17 15 15 15 16 17 19 20 21 22 23 24 25 26 27 29 29 29 29 28 28 28 28 28 28 28 28 28 28 28 29 29 30 31 31 31 31 30 30 29 29
5 5 5 5 5 5 5 5 5 6 6 6 7 7 8 8 8 8 8 7 7 8 8 8 8 7 6 6 5 5 5 5 5 5 5 5 5 5 5 5 4 4 5 5 5 6 8 10 11 13 14 17 20 23 25 25 26 26 25 23 20 17 15 15 15 16 17 19 20 22 23 23 24 24 25 26 27 28 29 29 28 28 28 27 27 27 28 28 28 28 28 28 28 28 29 31 31 30 30 30 30 30 28
5 5 5 5 5 5 6 6 6 6 6 7 7 7 8 8 8 8 8 7 7 7 7 7 7 7 6 6 5 5 5 5 5 5 5 6 6 5 5 5 5 5 5 5 6 7 9 11 13 14 17 20 23 24 24 25 26 25 23 20 17 16 15 16 17 18 19 21 22 23 23 24 24 24 24 25 26 28 28 28 27 27 27 27 27 27 27 28 28 28 28 28 28 28 29 30 30 29 30 31 31 31 29
6 6 6 6 6 6 6 6 6 6 6 6 7 7 8 8 8 8 7 7 6 6 7 7 6 6 6 6 5 5 5 5 5 5 6 6 6 6 5 5 5 5 5 6 7 9 10 12 14 16 19 22 24 25 24 25 25 23 20 18 16 15 16 17 18 20 21 22 23 23 23 23 23 23 23 24 25 26 27 27 26 26 26 26 27 27 27 27 28 28 28 28 28 28 28 29 28 28 28 30 32 33 32
7 6 6 6 7 7 7 7 6 6 6 6 7 7 8 8 8 8 7 6 6 6 6 6 6 5 5 5 5 5 4 5 5 5 6 6 6 5 5 5 5 5 5 6 7 9 11 13 15 18 21 23 24 25 25 25 23 20 18 16 15 16 17 18 20 21 22 23 23 23 23 22 22 22 22 23 24 25 26 26 25 24 24 25 26 26 26 27 27 28 28 28 28 28 28 27 27 26 26 28 31 33 34
7 7 7 7 7 7 7 7 7 6 6 6 6 7 8 8 8 8 7 6 6 5 5 6 5 5 4 4 4 4 4 5 5 5 6 6 6 6 5 5 5 6 6 6 8 10 12 13 16 20 23 23 24 26 27 25 21 18 16 15 15 17 19 20 21 22 23 23 22 22 21 21 21 21 21 22 23 24 25 25 24 23 23 24 25 25 26 26 27 28 28 29 28 28 28 27 26 26 26 27 28 30 33
7 7 7 7 7 7 8 7 7 6 5 5 6 7 8 8 8 8 7 5 5 5 5 5 5 5 4 3 3 4 4 5 5 6 5 5 5 6 6 5 5 5 7 8 9 10 13 14 16 19 24 24 25 27 27 23 20 17 15 15 16 18 20 21 22 23 22 22 21 21 20 20 20 20 21 21 22 23 24 24 24 23 23 23 24 25 25 26 27 28 28 29 29 29 28 27 26 25 26 26 27 30 33
6 6 6 6 7 7 8 7 7 6 5 5 6 6 7 8 8 8 7 5 4 4 4 4 4 4 4 3 3 4 5 5 6 6 6 5 5 5 6 6 6 5 6 9 10 10 12 14 16 19 24 25 27 27 27 23 19 16 15 16 18 20 21 22 22 22 21 21 20 19 19 19 20 20 21 22 22 23 24 24 24 23 23 23 24 24 25 26 27 28 28 29 29 29 28 27 26 25 25 25 26 29 32
6 6 6 6 6 7 7 7 7 6 5 4 5 5 6 7 8 8 7 6 4 3 3 3 3 4 4 4 4 4 5 6 6 6 5 6 5 4 4 6 6 6 6 7 10 12 12 14 17 21 24 26 27 27 26 22 18 16 16 18 19 20 22 22 21 21 20 19 19 19 19 19 20 21 22 23 23 24 25 25 24 24 23 24 24 24 25 26 27 29 29 30 30 30 29 28 27 25 24 24 24 26 30
6 6 6 6 6 7 7 7 7 6 5 4 4 5 6 7 7 7 7 6 4 3 3 3 2 3 4 4 4 5 6 6 6 6 5 5 6 6 4 3 4 5 6 6 10 13 15 15 18 21 24 27 28 28 24 20 17 16 17 19 20 21 21 21 20 20 19 19 19 19 20 21 22 23 24 24 25 25 25 25 24 24 23 24 24 25 26 27 29 30 31 31 31 30 29 28 27 26 25 24 23 24 27
6 6 5 5 6 6 7 7 7 6 5 4 4 4 5 5 6 6 6 6 5 4 3 3 3 3 3 4 5 5 7 7 7 7 6 5 5 6 5 3 3 5 6 6 8 11 15 16 20 24 28 29 29 28 23 19 17 17 18 19 21 21 21 20 19 19 18 18 19 20 21 22 24 25 26 26 26 26 26 25 24 23 23 24 25 26 27 28 30 32 33 33 32 31 30 28 27 25 24 24 23 23 24
6 6 6 6 6 6 7 7 7 7 6 5 4 4 4 4 5 5 6 5 4 4 3 3 3 3 2 4 5 6 8 8 8 7 7 5 4 4 5 8 8 7 5 3 3 7 15 18 21 26 35 31 28 25 22 18 17 18 19 21 21 21 20 19 19 18 19 19 20 22 23 25 26 27 28 27 27 26 26 24 23 22 22 23 24 26 28 30 32 34 36 36 35 33 31 29 28 26 24 23 23 23 24
7 6 6 6 6 6 7 8 8 7 6 5 4 4 3 3 4 4 5 5 4 4 4 4 4 4 3 4 6 7 8 9 8 7 7 7 5 4 4 9 9 7 6 7 5 4 12 18 20 23 33 30 27 23 21 18 17 18 20 21 21 21 20 19 19 19 20 21 22 23 26 28 29 30 30 28 27 26 25 23 22 21 21 22 24 26 29 31 33 36 38 38 37 35 33 31 29 28 27 24 23 22 24
7 7 6 6 6 6 7 7 8 7 6 5 4 4 4 4 4 4 4 4 4 4 4 4 4 5 5 5 6 7 8 8 8 7 6 8 9 9 4 2 2 4 7 15 18 16 9 12 14 19 29 30 27 23 21 18 17 19 21 22 21 21 21 20 20 21 22 22 24 26 28 29 31 31 30 28 27 25 24 22 20 20 20 22 24 27 30 32 34 36 38 39 39 38 35 32 30 28 27 26 24 23 22
7 7 7 6 6 6 7 7 8 7 7 5 5 5 4 4 4 4 4 4 4 4 4 4 5 5 6 6 6 6 8 8 8 8 7 7 9 11 9 5 4 5 5 12 16 17 14 9 8 13 28 33 30 23 19 18 19 20 22 22 22 22 21 22 22 22 22 23 25 27 29 30 31 30 29 27 26 24 23 20 19 18 20 22 25 28 30 32 34 36 38 39 40 40 38 34 31 28 27 26 24 23 21
8 7 7 7 6 6 7 7 7 7 6 6 5 5 5 5 5 4 4 4 3 4 4 5 5 5 6 7 6 6 7 7 7 8 9 8 7 8 11 13 13 12 9 5 3 3 9 11 13 14 15 28 31 26 17 17 19 22 22 23 23 23 23 24 24 24 24 24 25 27 29 30 30 29 28 26 25 23 21 19 17 18 19 23 26 29 31 32 33 35 37 39 40 41 40 37 33 30 28 25 23 22 21
8 8 7 7 6 6 6 7 7 7 6 6 5 5 6 5 5 4 4 4 4 3 3 4 5 5 5 7 7 7 7 7 7 7 8 9 8 8 9 12 14 16 19 13 9 5 -0 9 17 19 6 14 25 29 21 18 19 22 24 24 24 24 25 26 26 26 25 25 25 27 29 30 30 28 27 26 24 22 20 18 17 17 20 23 26 29 30 31 33 35 36 38 40 42 42 40 37 33 30 27 23 21 20
8 8 8 7 7 6 6 6 6 6 6 6 6 6 6 5 5 5 5 5 4 3 3 4 5 5 5 6 7 8 8 8 7 6 5 7 10 11 9 8 10 13 15 16 18 17 10 11 13 14 10 11 16 21 25 23 21 21 23 24 24 25 27 28 27 26 26 26 27 27 29 30 29 28 26 25 24 22 19 17 17 18 20 23 25 28 29 31 33 35 36 38 40 42 43 41 39 37 34 29 25 22 20
9 8 8 7 7 6 6 6 6 6 6 6 6 6 6 5 5 5 5 5 4 4 3 3 4 5 6 6 7 8 8 7 7 7 6 7 8 10 11 10 11 12 12 13 14 17 21 20 15 11 14 13 11 11 17 21 24 24 23 23 24 26 29 30 28 26 26 27 28 29 29 29 28 28 26 25 23 21 18 17 17 18 20 22 24 26 29 32 34 35 36 37 39 41 42 41 41 40 38 32 26 22 21
9 8 8 7 6 6 5 6 6 6 6 6 5 5 4 4 4 4 5 5 4 4 3 3 4 5 7 7 7 8 8 6 6 7 9 9 7 7 9 11 12 12 12 13 14 15 18 19 19 17 15 13 12 10 11 15 19 23 27 26 26 27 30 30 28 26 27 29 30 30 29 29 28 27 26 24 22 20 18 17 17 18 20 22 24 26 29 32 34 35 36 37 38 39 40 40 40 41 41 35 29 24 24
Height
5841 5841 5840 5840 5839 5839 5838 5838 5837 5836 5836 5835 5835 5835 5834 5833 5833 5832 5832 5831 5831 5830 5830 5829 5829 5829 5828 5828 5828 5827 5827 5827 5826 5826 5826 5825 5825 5825 5825 5825 5824 5824 5824 5824 5824 5823 5823 5822 5822 5822 5822 5821 5821 5821 5820 5820 5820 5820 5820 5819 5819 5818 5818 5818 5817 5817 5817 5817 5817 5817 5817 5817 5818 5819 5820 5821 5823 5824 5824 5825 5825 5825 5825 5825 5826 5826 5827 5828 5829 5830 5831 5832 5833 5834 5835 5837 5838 5839 5840 5841 5842 5843 5845
5839 5839 5838 5837 5837 5836 5836 5835 5835 5835 5834 5833 5833 5832 5832 5831 5830 5830 5829 5829 5828 5828 5827 5827 5826 5826 5825 5825 5825 5825 5824 5824 5824 5823 5823 5822 5822 5822 5821 5821 5821 5821 5821 5821 5821 5820 5820 5819 5819 5819 5819 5818 5818 5818 5818 5817 5817 5817 5816 5816 5816 5815 5815 5815 5815 5814 5814 5814 5814 5813 5813 5813 5814 5814 5815 5816 5818 5819 5820 5821 5821 5821 5821 5821 5822 5822 5823 5823 5824 5825 5826 5827 5829 5830 5831 5832 5834 5835 5836 5837 5838 5839 5840
5837 5837 5836 5835 5835 5834 5834 5833 5833 5832 5832 5831 5830 5830 5829 5829 5828 5827 5827 5826 5825 5825 5825 5824 5823 5823 5823 5822 5822 5821 5821 5820 5820 5820 5820 5819 5819 5819 5818 5818 5818 5817 5817 5817 5817 5817 5816 5816 5815 5815 5815 5815 5815 5814 5814 5814 5814 5814 5813 5813 5812 5812 5812 5811 5811 5811 5811 5810 5810 5810 5810 5810 5810 5810 5810 5811 5812 5814 5815 5816 5817 5817 5818 5818 5818 5818 5819 5819 5820 5820 5821 5822 5824 5825 5826 5828 5829 5830 5832 5833 5834 5835 5836
5835 5835 5834 5833 5833 5832 5832 5831 5830 5830 5829 5829 5828 5827 5827 5826 5825 5825 5824 5824 5823 5822 5822 5821 5820 5820 5820 5819 5819 5818 5818 5817 5817 5816 5816 5816 5815 5815 5815 5814 5814 5814 5814 5813 5813 5813 5812 5812 5812 5811 5811 5811 5810 5810 5810 5810 5810 5810 5810 5809 5809 5808 5808 5808 5808 5807 5807 5807 5806 5806 5806 5806 5805 5805 5806 5807 5807 5808 5809 5810 5812 5813 5814 5814 5814 5814 5814 5815 5815 5816 5817 5817 5819 5820 5822 5823 5824 5825 5827 5828 5830 5831 5832
5833 5833 5832 5831 5831 5830 5829 5829 5828 5827 5827 5826 5825 5825 5824 5824 5823 5822 5821 5821 5820 5820 5819 5818 5818 5817 5816 5816 5815 5815 5814 5814 5813 5813 5812 5812 5811 5811 5810 5810 5810 5810 5809 5809 5809 5809 5808 5808 5808 5807 5807 5806 5806 5806 5805 5805 5805 5805 5805 5805 5805 5805 5804 5804 5804 5804 5803 5803 5802 5802 5802 5802 5802 5801 5802 5802 5803 5803 5804 5805 5806 5807 5808 5809 5810 5810 5810 5810 5810 5811 5812 5813 5814 5815 5816 5818 5819 5821 5822 5824 5825 5826 5828
5831 5830 5830 5829 5829 5828 5827 5826 5826 5825 5824 5824 5823 5822 5821 5821 5820 5820 5819 5818 5817 5817 5816 5815 5815 5814 5813 5813 5812 5811 5811 5810 5810 5809 5809 5808 5807 5807 5806 5806 5805 5805 5805 5805 5805 5804 5804 5803 5803 5803 5802 5802 5801 5801 5801 5800 5800 5800 5800 5800 5800 5800 5800 5799 5799 5799 5799 5799 5798 5798 5798 5798 5798 5797 5797 5798 5798 5798 5799 5799 5800 5801 5802 5803 5805 5805 5805 5805 5805 5806 5807 5807 5808 5810 5811 5813 5814 5816 5817 5819 5820 5822 5823
5829 5829 5828 5827 5826 5825 5825 5824 5823 5823 5822 5821 5820 5820 5819 5818 5817 5817 5816 5815 5814 5814 5813 5812 5811 5811 5810 5809 5809 5808 5807 5806 5806 5805 5805 5804 5803 5803 5802 5802 5801 5800 5800 5800 5800 5799 5799 5799 5798 5798 5798 5797 5797 5796 5796 5795 5795 5795 5795 5795 5795 5795 5795 5794 5794 5794 5794 5794 5794 5794 5793 5793 5793 5793 5793 5793 5793 5793 5793 5794 5794 5795 5796 5797 5799 5800 5800 5800 5801 5801 5802 5802 5803 5804 5806 5807 5809 5810 5812 5814 5815 5817 5819
5827 5826 5825 5825 5824 5823 5822 5822 5821 5820 5819 5819 5818 5817 5816 5815 5815 5814 5813 5812 5811 5810 5810 5809 5808 5807 5807 5806 5805 5804 5804 5803 5802 5801 5800 5800 5799 5798 5798 5797 5796 5796 5795 5795 5795 5794 5794 5793 5793 5793 5792 5792 5792 5791 5791 5790 5790 5790 5790 5790 5790 5790 5789 5789 5788 5788 5788 5788 5788 5788 5788 5788 5788 5788 5789 5789 5789 5788 5788 5788 5789 5789 5790 5791 5792 5794 5795 5795 5796 5796 5797 5797 5798 5799 5800 5801 5803 5805 5806 5808 5810 5812 5814
5825 5824 5823 5822 5822 5821 5820 5819 5818 5817 5817 5816 5815 5814 5814 5813 5812 5811 5810 5809 5808 5807 5806 5805 5805 5804 5803 5802 5801 5800 5800 5799 5798 5797 5796 5795 5795 5794 5793 5792 5792 5791 5790 5790 5790 5789 5789 5788 5788 5787 5787 5787 5786 5786 5785 5785 5784 5784 5784 5784 5783 5783 5783 5783 5782 5782 5781 5781 5781 5781 5781 5781 5781 5782 5783 5783 5783 5783 5783 5783 5783 5784 5784 5785 5785 5787 5788 5790 5791 5791 5791 5792 5792 5793 5794 5795 5797 5799 5800 5803 5805 5807 5809
5823 5822 5821 5820 5819 5819 5818 5817 5816 5815 5814 5813 5812 5811 5811 5810 5809 5808 5807 5806 5805 5804 5803 5802 5801 5800 5799 5798 5797 5797 5796 5795 5794 5793 5792 5791 5790 5790 5789 5788 5787 5786 5785 5785 5784 5784 5783 5782 5782 5781 5781 5781 5780 5780 5779 5779 5778 5778 5777 5777 5777 5776 5776 5776 5775 5775 5775 5774 5774 5774 5774 5774 5774 5775 5775 5775 5776 5777 5777 5778 5778 5778 5778 5778 5779 5780 5782 5783 5785 5785 5786 5786 5787 5787 5788 5790 5791 5793 5794 5796 5799 5801 5803
5820 5820 5819 5818 5817 5816 5815 5814 5813 5812 5811 5810 5810 5809 5808 5807 5806 5805 5804 5803 5802 5801 5800 5799 5798 5797 5795 5795 5794 5793 5792 5791 5790 5789 5788 5787 5786 5785 5784 5783 5782 5781 5780 5780 5779 5778 5778 5777 5776 5776 5775 5775 5774 5774 5773 5772 5772 5771 5770 5770 5770 5770 5769 5769 5768 5768 5767 5767 5766 5766 5766 5766 5766 5766 5767 5767 5768 5769 5770 5771 5772 5772 5772 5772 5773 5774 5775 5776 5778 5779 5780 5780 5781 5781 5782 5783 5785 5786 5788 5790 5792 5795 5797
5818 5817 5816 5815 5815 5814 5813 5812 5811 5810 5809 5808 5807 5806 5805 5804 5803 5802 5801 5800 5799 5798 5797 5795 5794 5793 5792 5791 5790 5789 5788 5787 5785 5785 5784 5783 5782 5781 5780 5779 5778 5777 5776 5775 5774 5773 5772 5771 5770 5770 5769 5768 5768 5767 5766 5765 5765 5764 5763 5763 5763 5762 5761 5761 5761 5760 5760 5759 5759 5758 5758 5758 5758 5758 5758 5759 5759 5760 5760 5762 5763 5765 5765 5766 5766 5767 5768 5769 5770 5771 5773 5774 5775 5775 5776 5777 5779 5780 5782 5784 5786 5788 5790
5815 5815 5814 5813 5812 5811 5810 5809 5808 5807 5806 5805 5804 5803 5802 5801 5800 5799 5798 5797 5795 5795 5793 5792 5791 5790 5788 5787 5786 5785 5784 5782 5781 5780 5779 5778 5777 5776 5775 5774 5773 5772 5771 5770 5769 5767 5766 5765 5764 5763 5763 5762 5761 5760 5760 5759 5758 5757 5756 5756 5755 5755 5754 5753 5753 5752 5751 5751 5750 5750 5750 5750 5750 5750 5750 5750 5750 5750 5751 5752 5753 5755 5756 5758 5759 5760 5760 5761 5762 5764 5765 5767 5768 5769 5770 5771 5772 5773 5775 5777 5779 5781 5784
5813 5812 5811 5810 5810 5809 5808 5806 5805 5805 5803 5802 5801 5800 5799 5798 5796 5795 5794 5793 5792 5791 5790 5789 5787 5786 5785 5784 5782 5781 5780 5778 5777 5776 5775 5774 5773 5771 5770 5769 5768 5767 5766 5765 5763 5761 5760 5759 5758 5757 5756 5755 5754 5753 5752 5751 5750 5750 5749 5748 5747 5746 5746 5745 5745 5744 5743 5742 5742 5741 5741 5741 5741 5741 5741 5740 5740 5741 5741 5742 5743 5745 5746 5747 5749 5751 5753 5754 5755 5755 5757 5759 5760 5762 5763 5764 5765 5766 5768 5770 5772 5775 5777
5811 5810 5809 5808 5807 5806 5805 5804 5803 5802 5801 5800 5798 5797 5796 5795 5793 5792 5791 5790 5789 5787 5786 5785 5784 5782 5781 5780 5778 5777 5776 5774 5773 5771 5770 5769 5768 5766 5765 5764 5763 5762 5760 5759 5757 5756 5754 5753 5751 5750 5749 5748 5746 5745 5745 5744 5743 5742 5741 5740 5740 5738 5737 5737 5736 5735 5734 5733 5733 5732 5732 5732 5731 5731 5731 5731 5731 5731 5731 5732 5733 5734 5735 5737 5739 5740 5743 5745 5746 5747 5749 5750 5752 5754 5755 5757 5758 5760 5761 5763 5765 5768 5770
5809 5808 5807 5805 5805 5803 5802 5801 5800 5799 5798 5797 5795 5794 5793 5792 5790 5789 5788 5786 5785 5784 5782 5781 5780 5779 5777 5776 5775 5773 5772 5770 5769 5767 5766 5764 5763 5761 5760 5759 5757 5756 5754 5753 5751 5750 5748 5746 5745 5743 5741 5740 5739 5737 5736 5735 5734 5734 5733 5732 5731 5730 5729 5728 5727 5726 5725 5724 5723 5722 5722 5721 5721 5721 5721 5721 5721 5721 5721 5721 5722 5723 5724 5726 5727 5729 5731 5733 5736 5739 5740 5742 5744 5746 5748 5750 5751 5753 5754 5756 5758 5761 5763
5807 5805 5804 5803 5802 5801 5800 5799 5797 5796 5795 5794 5793 5791 5790 5789 5787 5786 5785 5783 5781 5780 5779 5777 5776 5775 5773 5772 5770 5769 5767 5766 5764 5763 5761 5760 5758 5756 5755 5753 5751 5750 5748 5746 5745 5743 5741 5740 5738 5736 5734 5732 5731 5729 5728 5726 5725 5725 5724 5723 5722 5721 5720 5719 5717 5716 5715 5714 5713 5712 5711 5710 5710 5710 5710 5710 5710 5710 5710 5710 5710 5711 5712 5714 5716 5718 5720 5722 5725 5728 5731 5733 5735 5737 5740 5742 5743 5745 5747 5749 5751 5753 5756
5804 5803 5802 5801 5800 5798 5797 5796 5795 5793 5792 5791 5790 5788 5787 5785 5784 5783 5781 5780 5778 5776 5775 5774 5772 5770 5769 5768 5766 5765 5763 5761 5760 5758 5756 5755 5753 5751 5749 5747 5745 5743 5741 5740 5738 5736 5734 5733 5730 5729 5727 5725 5723 5721 5720 5718 5717 5716 5715 5714 5713 5711 5710 5709 5708 5707 5705 5704 5703 5702 5701 5700 5699 5698 5698 5697 5697 5697 5697 5698 5698 5699 5700 5701 5703 5705 5707 5710 5713 5716 5719 5722 5725 5728 5730 5733 5735 5737 5739 5741 5743 5745 5748
5802 5801 5800 5798 5797 5796 5795 5793 5792 5790 5789 5788 5786 5785 5784 5782 5781 5779 5778 5776 5775 5773 5771 5770 5768 5766 5765 5763 5761 5760 5758 5756 5755 5753 5751 5749 5748 5746 5744 5741 5739 5737 5735 5733 5731 5729 5727 5725 5724 5722 5720 5718 5716 5714 5712 5710 5709 5708 5706 5705 5704 5702 5701 5700 5699 5697 5695 5694 5693 5692 5690 5689 5687 5686 5685 5684 5684 5683 5683 5684 5685 5685 5687 5688 5690 5692 5695 5698 5701 5704 5706 5710 5713 5717 5720 5723 5726 5728 5731 5733 5735 5737 5740
5800 5799 5797 5796 5795 5793 5792 5790 5789 5788 5786 5785 5783 5782 5780 5779 5777 5775 5774 5773 5771 5769 5768 5766 5764 5762 5761 5759 5757 5755 5753 5751 5750 5748 5746 5744 5742 5740 5738 5736 5734 5731 5729 5727 5725 5723 5720 5719 5717 5715 5713 5711 5709 5707 5705 5703 5701 5700 5698 5696 5695 5694 5692 5691 5689 5687 5685 5684 5683 5681 5679 5677 5675 5673 5672 5671 5670 5669 5669 5669 5670 5671 5672 5674 5676 5678 5681 5684 5687 5690 5694 5697 5700 5705 5709 5712 5715 5719 5722 5724 5727 5729 5731
5798 5796 5795 5794 5792 5790 5789 5788 5786 5785 5783 5781 5780 5778 5777 5775 5774 5772 5770 5769 5767 5765 5764 5762 5760 5758 5756 5754 5752 5750 5749 5746 5745 5742 5740 5738 5736 5735 5732 5730 5728 5726 5723 5721 5719 5716 5714 5712 5710 5708 5706 5704 5702 5700 5698 5696 5694 5692 5690 5688 5686 5685 5683 5681 5680 5677 5675 5674 5672 5670 5667 5664 5662 5660 5658 5656 5655 5654 5654 5654 5655 5655 5657 5659 5661 5664 5667 5670 5673 5677 5680 5684 5688 5692 5696 5700 5705 5709 5712 5715 5718 5720 5723
5795 5794 5792 5791 5789 5788 5786 5785 5783 5781 5780 5779 5777 5775 5773 5771 5770 5768 5766 5765 5763 5761 5760 5758 5756 5754 5752 5750 5748 5746 5744 5742 5740 5738 5735 5733 5731 5729 5727 5725 5722 5720 5718 5715 5713 5710 5708 5705 5703 5701 5699 5697 5695 5693 5691 5689 5687 5685 5682 5680 5678 5676 5674 5672 5670 5667 5665 5662 5660 5657 5654 5651 5648 5645 5642 5640 5639 5639 5638 5639 5639 5640 5641 5644 5646 5649 5652 5655 5659 5663 5667 5671 5675 5679 5683 5688 5693 5698 5702 5705 5709 5712 5714
5792 5791 5790 5788 5786 5785 5783 5782 5780 5779 5777 5775 5774 5771 5770 5768 5766 5765 5763 5761 5759 5757 5755 5753 5751 5750 5748 5746 5744 5742 5740 5738 5735 5733 5731 5728 5726 5724 5721 5719 5717 5715 5712 5710 5707 5705 5702 5700 5697 5695 5692 5690 5688 5686 5684 5682 5680 5677 5675 5672 5670 5667 5665 5662 5660 5656 5653 5650 5647 5644 5640 5637 5633 5630 5627 5625 5623 5623 5623 5623 5624 5625 5626 5628 5630 5634 5637 5640 5644 5648 5652 5657 5661 5666 5670 5675 5680 5685 5690 5695 5698 5702 5705
5790 5788 5787 5785 5784 5782 5780 5779 5777 5775 5774 5772 5770 5769 5767 5765 5763 5761 5759 5757 5755 5753 5751 5749 5747 5745 5744 5741 5739 5737 5735 5733 5731 5729 5726 5724 5721 5719 5716 5713 5711 5709 5706 5704 5701 5699 5696 5694 5691 5689 5686 5684 5681 5679 5677 5675 5672 5670 5667 5664 5661 5658 5655 5652 5649 5645 5642 5638 5634 5629 5625 5621 5617 5614 5611 5609 5608 5607 5607 5607 5608 5610 5611 5613 5615 5618 5621 5625 5629 5633 5638 5642 5647 5652 5657 5662 5667 5672 5678 5683 5688 5692 5695
5787 5785 5784 5782 5781 5779 5778 5776 5774 5773 5771 5769 5767 5765 5764 5762 5760 5758 5756 5754 5752 5750 5747 5745 5743 5741 5739 5737 5735 5733 5730 5728 5726 5724 5721 5719 5716 5713 5711 5708 5705 5703 5700 5698 5696 5693 5691 5688 5686 5683 5680 5678 5675 5673 5670 5667 5664 5661 5659 5655 5652 5649 5645 5642 5638 5634 5629 5624 5620 5615 5610 5606 5602 5599 5596 5594 5593 5592 5591 5592 5593 5594 5596 5597 5600 5602 5605 5609 5613 5617 5622 5627 5633 5638 5643 5649 5653 5658 5664 5670 5676 5681 5685
5785 5783 5781 5780 5778 5776 5775 5773 5771 5770 5768 5766 5764 5762 5760 5759 5757 5755 5752 5750 5748 5746 5744 5741 5739 5737 5735 5733 5730 5728 5726 5724 5721 5719 5716 5714 5711 5709 5706 5703 5700 5698 5695 5693 5690 5688 5685 5683 5680 5677 5675 5672 5669 5666 5663 5660 5656 5653 5650 5646 5643 5639 5635 5631 5626 5621 5616 5610 5605 5600 5596 5591 5588 5585 5582 5580 5578 5578 5577 5577 5578 5579 5581 5583 5585 5587 5590 5593 5597 5601 5606 5612 5617 5623 5629 5634 5639 5645 5650 5657 5663 5669 5674
5782 5780 5779 5777 5775 5774 5772 5770 5768 5767 5765 5763 5761 5759 5757 5755 5753 5751 5749 5747 5745 5742 5740 5738 5735 5733 5731 5729 5726 5724 5721 5719 5716 5714 5711 5709 5706 5704 5701 5698 5695 5693 5690 5687 5685 5682 5680 5677 5675 5672 5669 5665 5662 5659 5655 5652 5648 5645 5641 5637 5633 5629 5625 5620 5614 5609 5603 5597 5591 5586 5581 5577 5574 5571 5568 5566 5565 5564 5564 5564 5565 5565 5567 5568 5570 5572 5575 5578 5581 5585 5590 5595 5601 5607 5614 5620 5625 5630 5636 5642 5649 5656 5662
5779 5778 5776 5774 5772 5771 5769 5767 5765 5764 5762 5760 5758 5756 5754 5752 5750 5748 5746 5743 5741 5739 5736 5734 5732 5729 5727 5725 5722 5720 5717 5715 5712 5709 5706 5704 5701 5699 5696 5693 5690 5688 5685 5682 5679 5676 5674 5671 5668 5665 5662 5659 5655 5652 5648 5644 5640 5636 5631 5627 5623 5618 5613 5608 5602 5596 5590 5584 5578 5573 5568 5564 5561 5558 5555 5554 5552 5551 5551 5551 5552 5552 5554 5555 5556 5558 5560 5563 5566 5570 5575 5580 5585 5591 5597 5604 5610 5616 5623 5629 5635 5642 5649
5776 5775 5773 5771 5770 5768 5766 5764 5762 5760 5759 5757 5755 5753 5751 5749 5746 5744 5742 5740 5738 5735 5733 5730 5728 5725 5723 5720 5718 5715 5713 5710 5707 5705 5702 5699 5696 5694 5691 5688 5685 5682 5680 5677 5674 5671 5668 5665 5662 5659 5655 5652 5648 5644 5640 5636 5632 5627 5622 5617 5612 5606 5600 5595 5589 5582 5576 5570 5565 5560 5556 5552 5549 5546 5544 5541 5540 5540 5539 5539 5540 5540 5540 5541 5543 5545 5546 5549 5552 5555 5560 5564 5569 5575 5581 5588 5595 5602 5608 5615 5620 5627 5635
5774 5772 5770 5769 5767 5765 5763 5761 5759 5757 5755 5754 5751 5749 5747 5745 5743 5741 5739 5736 5734 5732 5729 5727 5724 5722 5719 5717 5714 5711 5709 5706 5703 5700 5697 5695 5692 5689 5686 5683 5680 5677 5675 5671 5668 5665 5662 5659 5655 5651 5648 5644 5640 5636 5632 5628 5623 5618 5612 5606 5600 5594 5588 5581 5575 5569 5563 5558 5553 5548 5544 5541 5538 5535 5533 5531 5529 5528 5527 5527 5528 5528 5528 5529 5529 5530 5533 5536 5539 5542 5545 5549 5553 5558 5564 5571 5578 5585 5593 5600 5606 5614 5621
5771 5769 5767 5766 5764 5762 5760 5758 5756 5754 5752 5750 5748 5746 5744 5742 5740 5737 5735 5733 5730 5728 5726 5723 5721 5718 5715 5713 5710 5708 5705 5702 5700 5696 5693 5690 5687 5684 5681 5678 5675 5672 5669 5666 5663 5660 5656 5652 5648 5644 5640 5636 5632 5627 5623 5618 5614 5608 5602 5596 5589 5582 5575 5568 5561 5555 5550 5545 5541 5537 5534 5530 5527 5525 5522 5520 5519 5517 5516 5516 5516 5517 5517 5517 5517 5518 5520 5523 5526 5529 5531 5535 5539 5543 5549 5555 5562 5570 5577 5585 5592 5600 5607
5768 5766 5765 5763 5761 5759 5757 5755 5753 5751 5749 5747 5745 5743 5740 5738 5736 5734 5731 5729 5727 5724 5722 5720 5717 5714 5712 5709 5706 5704 5701 5698 5695 5692 5689 5686 5683 5680 5677 5674 5670 5667 5664 5661 5657 5653 5650 5645 5641 5636 5632 5628 5623 5618 5614 5609 5603 5597 5591 5585 5577 5570 5562 5555 5549 5543 5538 5534 5530 5527 5523 5520 5518 5515 5513 5510 5508 5507 5506 5505 5505 5505 5505 5505 5505 5507 5509 5511 5513 5515 5518 5521 5525 5529 5534 5540 5546 5554 5561 5569 5576 5584 5593
5765 5763 5761 5760 5758 5756 5754 5752 5750 5748 5746 5744 5741 5739 5737 5735 5733 5730 5728 5725 5723 5720 5718 5715 5713 5710 5708 5705 5702 5700 5697 5694 5691 5688 5685 5682 5679 5675 5672 5669 5665 5662 5659 5655 5651 5647 5643 5638 5634 5629 5624 5620 5615 5609 5604 5598 5593 5586 5580 5573 5566 5558 5550 5543 5536 5530 5526 5522 5519 5516 5514 5511 5508 5505 5503 5501 5499 5497 5495 5494 5494 5494 5494 5494 5494 5495 5497 5499 5500 5503 5506 5509 5512 5516 5521 5526 5532 5538 5546 5554 5562 5569 5577
5762 5760 5759 5757 5755 5753 5750 5749 5746 5745 5742 5740 5738 5736 5734 5731 5729 5727 5724 5722 5719 5717 5714 5712 5709 5706 5704 5701 5698 5696 5693 5690 5687 5684 5680 5677 5674 5671 5667 5664 5660 5657 5653 5649 5645 5640 5636 5631 5626 5621 5616 5611 5606 5600 5594 5588 5582 5575 5569 5562 5554 5546 5539 5531 5525 5519 5515 5511 5508 5506 5504 5501 5499 5496 5494 5491 5489 5487 5485 5484 5483 5482 5482 5482 5483 5484 5485 5486 5488 5491 5494 5497 5500 5504 5507 5512 5518 5524 5530 5538 5546 5554 5562
5760 5757 5755 5754 5752 5750 5747 5745 5743 5741 5739 5737 5735 5732 5730 5728 5725 5723 5721 5718 5716 5713 5710 5708 5705 5702 5700 5697 5695 5692 5689 5686 5683 5680 5676 5673 5669 5666 5663 5659 5655 5651 5647 5643 5638 5634 5629 5624 5619 5614 5608 5602 5597 5591 5585 5578 5571 5564 5557 5550 5543 5535 5528 5521 5515 5509 5505 5501 5498 5495 5493 5491 5489 5487 5485 5482 5480 5478 5475 5474 5472 5471 5471 5471 5472 5473 5474 5474 5476 5479 5482 5485 5488 5491 5495 5499 5504 5510 5515 5523 5531 5539 5547
5757 5755 5753 5750 5748 5746 5744 5742 5740 5738 5736 5734 5731 5729 5727 5725 5722 5720 5717 5715 5712 5709 5706 5704 5701 5698 5696 5693 5690 5687 5685 5682 5678 5675 5672 5668 5665 5661 5657 5654 5650 5645 5641 5636 5631 5626 5621 5616 5611 5606 5600 5594 5588 5581 5575 5568 5561 5554 5546 5539 5532 5525 5518 5511 5505 5500 5495 5491 5488 5485 5483 5481 5479 5477 5475 5473 5471 5469 5466 5464 5462 5461 5460 5460 5460 5461 5463 5463 5465 5467 5470 5473 5477 5480 5483 5487 5491 5497 5502 5509 5516 5525 5532
5754 5752 5750 5747 5745 5743 5741 5739 5737 5735 5732 5730 5728 5726 5723 5721 5719 5716 5713 5711 5708 5705 5703 5700 5697 5694 5691 5689 5686 5683 5680 5677 5674 5670 5667 5664 5660 5656 5652 5648 5644 5639 5634 5630 5625 5620 5614 5609 5603 5598 5591 5585 5579 5572 5565 5557 5550 5543 5535 5528 5521 5514 5507 5501 5496 5491 5487 5483 5479 5476 5473 5471 5469 5467 5465 5464 5462 5460 5457 5455 5452 5450 5450 5449 5450 5450 5451 5452 5454 5456 5459 5462 5465 5469 5472 5476 5480 5485 5491 5497 5503 5511 5519
5751 5749 5746 5745 5742 5740 5738 5736 5734 5731 5729 5727 5725 5722 5720 5717 5715 5712 5710 5707 5704 5702 5699 5696 5693 5690 5687 5684 5681 5678 5675 5672 5669 5666 5662 5658 5655 5651 5647 5643 5638 5633 5628 5623 5618 5612 5607 5601 5595 5589 5583 5576 5569 5562 5555 5547 5540 5533 5525 5518 5510 5504 5497 5492 5486 5482 5477 5474 5470 5466 5463 5461 5459 5457 5455 5454 5452 5450 5448 5445 5443 5440 5439 5439 5439 5440 5441 5442 5443 5445 5448 5451 5455 5458 5462 5466 5470 5475 5480 5485 5492 5500 5507
5748 5745 5743 5741 5739 5737 5735 5733 5730 5728 5726 5724 5721 5719 5716 5714 5711 5709 5706 5703 5700 5698 5695 5692 5689 5686 5683 5680 5677 5674 5671 5668 5664 5660 5657 5654 5650 5645 5642 5637 5632 5627 5622 5617 5611 5605 5600 5594 5587 5581 5574 5567 5560 5553 5545 5538 5530 5523 5515 5508 5501 5495 5488 5482 5477 5472 5468 5464 5460 5457 5454 5451 5449 5447 5445 5444 5443 5441 5439 5436 5433 5431 5429 5428 5429 5430 5430 5432 5434 5435 5438 5441 5444 5448 5452 5456 5460 5464 5468 5474 5480 5487 5495
5745 5742 5740 5738 5736 5734 5731 5729 5727 5725 5722 5720 5718 5715 5713 5710 5708 5705 5702 5699 5696 5694 5691 5688 5685 5681 5679 5676 5672 5669 5665 5663 5659 5655 5652 5648 5644 5640 5635 5631 5626 5621 5616 5610 5604 5598 5592 5586 5579 5572 5565 5558 5551 5544 5537 5529 5522 5514 5507 5500 5493 5486 5480 5474 5469 5464 5459 5455 5451 5448 5445 5441 5439 5437 5435 5435 5434 5432 5430 5427 5425 5422 5420 5419 5419 5420 5421 5422 5424 5425 5428 5430 5434 5437 5441 5445 5448 5451 5457 5462 5468 5475 5482
5742 5739 5737 5735 5733 5730 5728 5726 5724 5721 5719 5716 5714 5711 5709 5706 5704 5701 5698 5695 5692 5689 5686 5684 5680 5677 5674 5671 5668 5664 5661 5658 5654 5650 5646 5643 5639 5635 5630 5625 5620 5615 5609 5603 5597 5591 5585 5578 5571 5564 5557 5550 5542 5535 5528 5521 5513 5506 5499 5492 5485 5478 5472 5466 5461 5455 5450 5446 5441 5438 5435 5432 5429 5427 5425 5425 5424 5423 5421 5419 5415 5413 5411 5410 5410 5410 5411 5413 5414 5416 5418 5420 5423 5426 5429 5433 5435 5440 5446 5451 5456 5463 5469
5739 5736 5734 5732 5729 5727 5725 5722 5720 5718 5715 5713 5710 5708 5705 5703 5700 5697 5694 5691 5688 5685 5682 5679 5676 5673 5670 5666 5663 5660 5656 5652 5649 5646 5642 5638 5633 5629 5624 5619 5614 5608 5603 5597 5590 5584 5577 5570 5563 5556 5548 5541 5534 5526 5519 5512 5505 5498 5491 5485 5478 5471 5465 5459 5453 5448 5443 5438 5433 5429 5426 5423 5420 5418 5416 5415 5415 5414 5413 5410 5407 5404 5402 5401 5401 5401 5402 5403 5405 5407 5408 5410 5414 5416 5418 5422 5427 5432 5437 5441 5446 5451 5457
5735 5733 5731 5728 5726 5724 5721 5719 5716 5714 5711 5709 5706 5704 5701 5699 5696 5693 5690 5687 5684 5681 5678 5675 5671 5668 5665 5661 5658 5655 5651 5647 5644 5640 5637 5633 5628 5624 5618 5613 5608 5602 5596 5591 5584 5577 5570 5563 5555 5548 5540 5532 5525 5518 5510 5503 5497 5490 5484 5477 5471 5465 5458 5452 5446 5440 5435 5430 5425 5421 5417 5414 5412 5409 5407 5406 5405 5405 5404 5402 5399 5396 5393 5392 5392 5393 5394 5394 5395 5397 5399 5401 5404 5407 5410 5414 5419 5425 5430 5432 5436 5440 5446
5732 5730 5728 5725 5723 5720 5718 5715 5713 5710 5708 5705 5703 5700 5697 5695 5692 5689 5686 5683 5680 5677 5673 5670 5667 5663 5659 5656 5652 5649 5646 5642 5639 5635 5631 5627 5623 5618 5613 5608 5602 5595 5590 5584 5578 5571 5563 5555 5548 5540 5532 5524 5516 5510 5502 5495 5489 5483 5476 5470 5464 5458 5451 5445 5439 5433 5428 5423 5418 5414 5410 5406 5403 5401 5399 5397 5396 5396 5395 5394 5391 5388 5385 5384 5384 5385 5385 5386 5387 5388 5390 5392 5395 5397 5401 5406 5411 5415 5420 5423 5426 5431 5437
5729 5727 5725 5722 5720 5717 5715 5712 5710 5707 5704 5701 5699 5696 5693 5690 5688 5685 5682 5679 5676 5673 5669 5665 5662 5658 5655 5650 5647 5643 5640 5637 5633 5630 5626 5622 5617 5612 5607 5602 5597 5591 5584 5577 5571 5565 5557 5549 5541 5533 5525 5517 5509 5501 5495 5488 5481 5475 5469 5463 5457 5451 5445 5438 5432 5426 5420 5415 5411 5407 5403 5399 5395 5392 5390 5389 5388 5388 5387 5386 5384 5380 5378 5376 5376 5376 5377 5378 5378 5380 5381 5384 5386 5389 5393 5397 5402 5406 5409 5413 5418 5424 5430
5726 5724 5721 5719 5716 5714 5711 5709 5706 5703 5700 5698 5695 5692 5689 5686 5684 5680 5677 5675 5671 5668 5665 5661 5657 5653 5650 5645 5641 5638 5634 5631 5628 5624 5620 5616 5612 5607 5600 5595 5590 5586 5580 5572 5565 5557 5551 5543 5535 5527 5519 5511 5503 5495 5487 5481 5474 5468 5462 5456 5450 5444 5438 5431 5425 5419 5413 5408 5404 5400 5395 5392 5388 5385 5382 5380 5379 5379 5379 5378 5376 5374 5371 5369 5368 5369 5369 5370 5370 5372 5373 5375 5378 5381 5385 5389 5393 5397 5400 5405 5410 5416 5422
5723 5720 5718 5715 5713 5710 5707 5705 5702 5700 5697 5694 5691 5688 5685 5682 5679 5676 5673 5670 5666 5663 5660 5656 5652 5648 5645 5640 5636 5632 5629 5625 5622 5618 5614 5610 5605 5601 5597 5590 5583 5577 5573 5567 5560 5552 5545 5539 5530 5522 5513 5505 5497 5489 5481 5475 5468 5461 5455 5449 5443 5437 5431 5425 5418 5412 5406 5401 5396 5392 5388 5385 5381 5378 5375 5372 5371 5370 5370 5370 5369 5366 5364 5362 5361 5361 5361 5362 5362 5364 5365 5367 5370 5372 5376 5381 5385 5388 5392 5397 5402 5407 5413
5719 5717 5714 5711 5709 5706 5704 5701 5699 5696 5693 5690 5687 5684 5681 5678 5675 5672 5669 5665 5662 5658 5655 5651 5647 5643 5639 5636 5632 5627 5623 5620 5616 5612 5608 5605 5599 5594 5591 5587 5580 5573 5565 5560 5554 5546 5538 5532 5525 5518 5509 5501 5493 5485 5477 5470 5462 5455 5449 5443 5436 5430 5424 5418 5411 5405 5399 5394 5389 5385 5381 5377 5374 5370 5368 5365 5363 5362 5362 5361 5360 5359 5357 5355 5354 5354 5354 5354 5355 5356 5357 5360 5362 5365 5368 5373 5377 5381 5385 5390 5395 5400 5405
5716 5713 5710 5708 5705 5702 5700 5697 5695 5692 5689 5686 5683 5680 5677 5674 5670 5667 5664 5661 5658 5654 5650 5646 5643 5639 5634 5630 5626 5622 5618 5614 5610 5606 5601 5599 5595 5590 5584 5581 5577 5571 5563 5555 5548 5540 5531 5524 5517 5511 5503 5495 5488 5480 5473 5465 5458 5450 5443 5436 5430 5423 5417 5410 5404 5398 5392 5387 5382 5377 5373 5370 5366 5363 5360 5358 5356 5355 5354 5353 5352 5351 5349 5348 5347 5346 5347 5347 5347 5349 5350 5352 5355 5357 5361 5365 5369 5373 5378 5382 5388 5394 5399
5712 5710 5707 5704 5701 5699 5696 5693 5691 5688 5685 5682 5679 5676 5672 5669 5666 5663 5660 5656 5653 5649 5645 5641 5637 5634 5630 5624 5620 5616 5612 5607 5603 5600 5595 5590 5587 5584 5578 5572 5568 5565 5560 5552 5545 5538 5529 5519 5511 5505 5497 5489 5482 5475 5468 5460 5452 5445 5437 5430 5423 5416 5410 5404 5397 5391 5385 5380 5375 5370 5366 5363 5360 5356 5354 5351 5349 5347 5346 5345 5344 5343 5341 5340 5340 5340 5340 5340 5340 5341 5343 5345 5347 5350 5354 5358 5362 5366 5369 5374 5379 5385 5390
5709 5706 5703 5700 5698 5695 5692 5690 5687 5684 5681 5678 5675 5672 5669 5665 5662 5658 5655 5651 5648 5644 5640 5636 5632 5628 5625 5620 5615 5610 5606 5601 5596 5592 5589 5582 5577 5574 5572 5566 5560 5556 5554 5548 5542 5535 5528 5518 5509 5502 5494 5484 5476 5469 5462 5454 5445 5438 5431 5424 5416 5410 5403 5397 5391 5385 5379 5374 5369 5364 5360 5356 5353 5350 5347 5345 5342 5340 5339 5338 5336 5335 5333 5332 5332 5332 5333 5333 5334 5334 5335 5337 5339 5343 5347 5351 5354 5357 5361 5365 5371 5377 5383
5705 5703 5700 5697 5694 5691 5689 5686 5683 5680 5677 5674 5670 5667 5664 5661 5657 5654 5650 5647 5643 5639 5635 5632 5627 5622 5618 5615 5610 5605 5600 5595 5590 5585 5582 5576 5570 5564 5561 5559 5555 5549 5544 5539 5533 5527 5521 5514 5505 5497 5489 5480 5470 5463 5457 5450 5441 5432 5425 5418 5410 5403 5397 5391 5385 5379 5373 5367 5363 5358 5354 5350 5347 5344 5341 5339 5336 5334 5332 5331 5329 5327 5326 5325 5325 5325 5326 5326 5327 5327 5328 5330 5332 5336 5340 5343 5345 5349 5353 5358 5364 5370 5376
5702 5699 5696 5693 5690 5688 5685 5682 5679 5676 5673 5670 5666 5663 5660 5656 5653 5649 5645 5642 5638 5634 5630 5626 5623 5618 5613 5609 5605 5600 5594 5589 5584 5579 5574 5570 5565 5558 5550 5546 5543 5540 5535 5530 5525 5520 5514 5507 5499 5491 5483 5474 5465 5458 5452 5446 5438 5429 5420 5412 5405 5397 5391 5385 5378 5372 5366 5361 5356 5352 5348 5344 5341 5339 5336 5333 5331 5329 5327 5325 5323 5321 5320 5319 5319 5319 5319 5320 5320 5320 5321 5323 5325 5329 5332 5335 5338 5342 5347 5352 5358 5364 5370
5699 5696 5693 5690 5687 5684 5681 5678 5675 5672 5669 5666 5662 5659 5655 5651 5648 5644 5640 5637 5633 5629 5625 5620 5617 5614 5609 5604 5600 5596 5590 5584 5578 5572 5566 5561 5558 5553 5545 5537 5531 5527 5524 5520 5516 5512 5507 5500 5492 5485 5479 5470 5460 5452 5445 5439 5432 5424 5415 5407 5399 5392 5385 5379 5372 5366 5360 5354 5350 5345 5341 5338 5336 5333 5331 5328 5325 5324 5321 5319 5317 5315 5313 5313 5313 5313 5313 5313 5313 5314 5314 5316 5319 5322 5325 5329 5333 5338 5343 5348 5354 5360 5365
5695 5692 5689 5686 5683 5680 5677 5675 5672 5669 5665 5662 5658 5655 5651 5647 5643 5640 5636 5632 5628 5624 5620 5615 5611 5608 5605 5599 5594 5590 5585 5579 5573 5567 5561 5553 5548 5544 5540 5533 5525 5518 5511 5506 5500 5496 5492 5489 5485 5479 5474 5467 5459 5450 5440 5432 5425 5419 5410 5402 5394 5387 5380 5373 5366 5360 5353 5348 5343 5339 5335 5333 5330 5328 5326 5323 5321 5319 5316 5314 5312 5310 5308 5307 5307 5307 5307 5307 5307 5307 5308 5310 5313 5316 5319 5323 5327 5333 5338 5344 5350 5355 5361
5692 5689 5686 5683 5680 5677 5674 5671 5668 5665 5661 5658 5654 5650 5647 5643 5639 5635 5631 5627 5623 5619 5615 5610 5606 5602 5599 5595 5590 5584 5579 5574 5568 5562 5557 5550 5541 5534 5529 5525 5519 5512 5505 5498 5491 5485 5479 5475 5473 5470 5467 5462 5457 5449 5440 5430 5421 5413 5406 5398 5390 5383 5375 5369 5361 5354 5348 5342 5337 5334 5330 5327 5325 5323 5321 5319 5316 5314 5312 5310 5307 5305 5304 5303 5302 5302 5302 5301 5301 5302 5303 5305 5307 5310 5313 5317 5322 5327 5333 5339 5345 5350 5355
5688 5685 5682 5679 5676 5673 5670 5667 5664 5661 5657 5654 5650 5646 5643 5639 5635 5631 5627 5623 5619 5615 5610 5606 5601 5597 5592 5589 5585 5580 5575 5569 5563 5556 5550 5545 5538 5530 5522 5515 5510 5505 5499 5493 5487 5480 5474 5466 5460 5458 5457 5454 5450 5445 5437 5427 5417 5408 5400 5393 5386 5379 5371 5364 5356 5349 5343 5337 5332 5329 5325 5323 5320 5318 5316 5314 5312 5310 5308 5306 5303 5301 5300 5298 5297 5297 5297 5297 5297 5297 5298 5300 5302 5305 5309 5313 5318 5323 5328 5334 5340 5345 5351
5685 5682 5679 5676 5673 5670 5666 5663 5660 5657 5653 5650 5646 5642 5638 5635 5631 5627 5622 5618 5614 5610 5605 5601 5597 5592 5587 5583 5579 5575 5570 5565 5559 5553 5545 5539 5533 5527 5519 5510 5503 5496 5490 5484 5478 5473 5467 5461 5453 5447 5444 5443 5441 5437 5430 5422 5414 5405 5396 5388 5381 5374 5367 5359 5352 5345 5338 5332 5328 5324 5321 5319 5316 5314 5312 5310 5308 5306 5304 5302 5300 5298 5296 5295 5294 5293 5293 5293 5293 5293 5294 5296 5298 5301 5305 5309 5314 5319 5324 5329 5335 5340 5346
5681 5678 5675 5672 5669 5666 5663 5660 5656 5653 5649 5646 5642 5638 5634 5630 5626 5623 5618 5614 5610 5605 5601 5596 5591 5587 5583 5578 5573 5569 5565 5559 5554 5548 5542 5535 5527 5521 5515 5507 5499 5491 5484 5477 5470 5463 5457 5451 5446 5440 5435 5432 5430 5429 5425 5418 5410 5402 5394 5385 5377 5369 5362 5355 5347 5340 5334 5329 5324 5320 5317 5315 5312 5310 5308 5306 5305 5303 5301 5299 5297 5295 5293 5291 5290 5290 5289 5289 5289 5290 5291 5292 5295 5297 5301 5305 5310 5314 5319 5324 5330 5336 5341
5678 5675 5672 5669 5666 5663 5659 5656 5652 5649 5645 5641 5638 5634 5630 5626 5622 5618 5614 5610 5605 5601 5597 5592 5587 5582 5578 5573 5569 5564 5559 5554 5548 5542 5537 5531 5524 5516 5509 5503 5496 5489 5481 5473 5465 5458 5450 5442 5436 5431 5426 5422 5418 5416 5415 5412 5406 5398 5391 5383 5375 5366 5358 5350 5343 5337 5331 5326 5321 5318 5315 5312 5309 5307 5305 5303 5301 5300 5298 5296 5294 5292 5290 5289 5287 5286 5286 5286 5286 5287 5288 5289 5291 5295 5298 5301 5305 5309 5314 5319 5326 5332 5337
5675 5671 5668 5665 5662 5659 5656 5652 5649 5645 5641 5638 5634 5630 5626 5622 5618 5614 5610 5605 5601 5596 5592 5588 5583 5578 5573 5569 5564 5559 5554 5549 5543 5537 5531 5525 5519 5512 5505 5498 5491 5485 5478 5470 5463 5455 5447 5440 5432 5425 5419 5414 5410 5406 5403 5402 5399 5393 5386 5380 5373 5365 5356 5347 5340 5333 5328 5324 5319 5315 5312 5309 5307 5305 5302 5300 5298 5297 5295 5293 5291 5289 5288 5286 5285 5284 5284 5284 5284 5284 5285 5287 5289 5292 5295 5298 5301 5305 5309 5315 5322 5329 5334